[[{"header":{"parameterUnit":"m.s-1","parameterCategory":1,"la1":30.2991,"la2":30.254,"lo1":-89.0895,"lo2":-89.0444,"dy":0.0017,"dx":0.0017,"nx":28,"ny":28,"refTime":"2025-05-31T09:00:00:Z","depth":0,"parameterNumber":2,"parameterNumberName":"U-component_of_WINDS"},"data":[0,0,0,0,0,0,0,0,0,0,0,0,0,0,0,0,0,0,0,0,0,0,0,0,0,0,0,0,0,0,0,0,0,0,0,0,0,0,0,0,0,0,0,0,0,0,0,0,0,0,0,0,0,0,0,0,0,0,2.4748,2.4749,0,2.487,2.4872,2.4873,2.4889,2.4888,2.4887,2.4886,2.5009,2.5013,2.5018,0,0,0,0,0,0,0,0,0,0,0,0,0,2.4524,2.4528,2.4748,2.4749,2.4751,2.487,2.4872,2.4873,2.489,2.4888,2.4887,2.4885,2.5008,2.5013,2.5018,0,0,0,0,0,0,0,0,0,0,0,0,0,2.4631,2.453,2.4747,2.4773,2.4777,2.487,2.4872,2.4874,2.489,2.4888,2.4886,2.4885,2.5006,2.5012,2.5019,2.5093,0,0,2.5039,2.5042,0,0,0,0,0,0,0,0,2.4625,2.464,2.4768,2.4772,2.4776,2.4863,2.4838,2.4947,2.489,2.4847,2.4886,2.4884,2.4962,2.4972,2.4998,2.5099,2.5105,2.5039,2.5043,2.5046,2.5048,0,0,0,0,0,0,0,2.4618,2.4634,2.4796,2.477,2.4775,2.4778,2.4791,2.4859,2.4912,2.4851,2.4852,2.4866,2.4963,2.4992,2.5001,2.5106,2.5039,2.5045,2.5049,2.5051,2.5271,2.5273,0,0,0,0,0,0,2.4606,2.4628,2.4792,2.48,2.4695,2.4783,2.4798,2.4837,2.4912,2.4922,2.4868,2.4867,2.4982,2.4994,2.5006,2.5096,2.5046,2.5052,2.5056,2.5269,2.5272,2.5274,0,0,0,0,0,0,2.4601,2.4621,2.4787,2.4714,2.4736,2.4789,2.4832,2.484,2.4869,2.4925,2.4934,2.4887,2.4981,2.4997,2.5071,2.51,2.5055,2.5061,2.5267,2.527,2.5273,2.5277,0,0,0,0,0,0,2.4595,2.4619,2.4649,2.4715,2.474,2.4851,2.4834,2.4844,2.488,2.488,2.4946,2.4955,2.4981,2.5061,2.5077,2.5108,2.5066,2.5265,2.5268,2.5272,2.5275,2.528,2.5285,0,0,0,0,0,2.4587,2.4645,2.465,2.467,2.4778,2.4853,2.4867,2.4896,2.4882,2.4912,2.4948,2.4953,2.5095,2.5069,2.5087,2.512,2.5263,2.5267,2.5271,2.5273,2.5279,2.5284,0,0,0,0,0,0,2.4581,2.4655,2.4661,2.4743,2.4792,2.4856,2.4894,2.4903,2.4956,2.4954,2.4987,2.5002,2.5074,2.5105,2.5074,2.5195,2.5177,2.5186,2.5172,2.5178,2.5183,2.5173,2.5071,0,0,0,0,0,2.4589,2.4645,2.4706,2.4772,2.4797,2.4841,2.4875,2.4893,2.4945,2.4965,2.5007,2.5056,2.5111,2.5147,2.5201,2.528,2.5293,2.5312,2.5317,2.532,2.5326,2.5367,2.5375,2.5288,2.5288,2.5288,0,0,2.4607,2.4654,2.4687,2.4772,2.4812,2.4867,2.4858,2.4918,2.4958,2.4974,2.5046,2.5078,2.5135,2.5211,2.5246,2.5239,2.5354,2.5326,2.5328,2.5333,2.5372,2.5381,2.5388,2.5291,2.529,2.529,0,0,2.4666,2.4709,2.4767,2.4807,2.4868,2.4897,2.4911,2.4974,2.4995,2.5069,2.5081,2.5129,2.5225,2.5264,2.5296,2.5369,2.5374,2.5386,2.541,2.545,2.5456,2.5463,2.5486,2.5494,2.5392,2.5392,2.5392,0,2.468,2.4765,2.4796,2.4854,2.489,2.4908,2.4966,2.5003,2.5078,2.5101,2.5093,2.5211,2.5251,2.5335,2.5352,2.5379,2.5394,2.5377,2.5453,2.546,2.5466,2.5488,2.5497,2.5393,2.5392,2.5392,2.5392,0,2.4777,2.4835,2.4875,2.4947,2.4988,2.5046,2.5084,2.5121,2.5136,2.5165,2.5238,2.5286,2.5349,2.5371,2.5386,2.5456,2.5449,2.5447,2.5429,2.5474,2.5496,2.5505,2.5394,2.5393,2.5393,2.5393,0,0,2.4835,2.4923,2.4937,2.4968,2.5036,2.5081,2.5139,2.5201,2.5231,2.5282,2.5329,2.5409,2.5406,2.5443,2.5463,2.5498,2.5548,2.549,2.5492,2.5497,2.5625,2.5625,2.5635,2.5553,2.5555,2.5556,2.5619,0,2.49,2.5005,2.5034,2.5121,2.5174,2.5191,2.5241,2.5286,2.5315,2.5363,2.5395,2.5449,2.5443,2.5465,2.55,2.5534,2.5574,2.5531,2.5595,2.5597,2.5578,2.5646,2.5647,2.5704,2.5628,2.563,2.5631,0,2.499,2.5043,2.5135,2.5194,2.5217,2.5262,2.5319,2.5366,2.5417,2.5436,2.5476,2.5492,2.555,2.5531,2.5611,2.5581,2.5609,2.563,2.5633,2.5638,2.5615,2.5651,2.5724,2.5731,2.5645,2.5644,2.5643,0,2.502,2.5114,2.5181,2.5208,2.5279,2.5309,2.534,2.539,2.5424,2.5475,2.5497,2.5554,2.5584,2.5627,2.5657,2.564,2.5733,2.5717,2.5748,2.5747,2.5765,2.5763,2.5841,2.5788,2.5787,2.5787,2.5787,0,2.5088,2.5143,2.5195,2.5235,2.5297,2.533,2.5389,2.5421,2.5465,2.551,2.5529,2.5571,2.5609,2.5656,2.568,2.5741,2.5756,2.577,2.5775,2.5767,2.5765,2.5785,2.5781,2.579,2.5789,2.5789,2.5788,0,2.5131,2.5168,2.5241,2.5302,2.5319,2.5361,2.5412,2.5452,2.5481,2.5538,2.5554,2.5599,2.5655,2.569,2.5761,2.5777,2.5844,2.5849,2.5826,2.5828,2.5856,2.5852,2.5947,2.596,2.59,2.5901,2.5901,0,2.5171,2.5214,2.5279,2.5311,2.5342,2.5394,2.5429,2.5463,2.5498,2.5559,2.559,2.5648,2.5695,2.5784,2.5822,2.5876,2.5881,2.5911,2.5889,2.5879,2.5878,2.5874,2.5877,2.5913,2.5914,2.5914,2.5915,0,2.5237,2.5252,2.5303,2.536,2.5401,2.5447,2.5493,2.5518,2.5559,2.5597,2.5655,2.5692,2.5764,2.582,2.5877,2.5907,2.5917,2.5921,2.5931,2.5922,2.5906,2.5912,2.5833,2.5919,2.5918,2.5918,2.5918,2.5918,2.5278,2.5315,2.5367,2.5422,2.546,2.5502,2.5541,2.5575,2.5624,2.5685,2.5702,2.5761,2.581,2.5887,2.5918,2.5964,2.596,2.5974,2.5978,2.598,2.5979,2.59,2.5975,2.5975,2.5975,2.5975,2.5975,0,2.5342,2.5376,2.5426,2.5489,2.5532,2.5539,2.5589,2.5624,2.5676,2.5721,2.5767,2.5832,2.5886,2.5928,2.5983,2.6011,2.6017,2.6024,2.6021,2.6028,2.5981,2.5966,2.6019,2.6019,2.6019,2.6019,2.6019,2.6019,2.538,2.5444,2.5465,2.5547,2.558,2.5639,2.5667,2.5705,2.574,2.5812,2.5857,2.5884,2.5928,2.5985,2.6034,2.6045,2.6063,2.6069,2.6081,2.6036,2.6031,2.6027,2.6013,2.6074,2.6074,2.6123,2.6123,2.6124]},{"header":{"parameterUnit":"m.s-1","parameterCategory":1,"la1":30.2991,"la2":30.254,"lo1":-89.0895,"lo2":-89.0444,"dy":0.0017,"dx":0.0017,"nx":28,"ny":28,"refTime":"2025-05-31T09:00:00:Z","depth":0,"parameterNumber":3,"parameterNumberName":"V-component_of_WINDS"},"data":[0,0,0,0,0,0,0,0,0,0,0,0,0,0,0,0,0,0,0,0,0,0,0,0,0,0,0,0,0,0,0,0,0,0,0,0,0,0,0,0,0,0,0,0,0,0,0,0,0,0,0,0,0,0,0,0,0,0,2.8927,2.8926,0,2.8899,2.8899,2.8898,2.886,2.8859,2.8859,2.8858,2.8828,2.8828,2.8828,0,0,0,0,0,0,0,0,0,0,0,0,0,2.8945,2.8945,2.8927,2.8926,2.8926,2.8899,2.8899,2.8898,2.886,2.8859,2.8859,2.8858,2.8829,2.8828,2.8828,0,0,0,0,0,0,0,0,0,0,0,0,0,2.8929,2.8945,2.8927,2.8904,2.8901,2.8899,2.8899,2.8898,2.886,2.8859,2.8858,2.8857,2.8829,2.8828,2.8828,2.8846,0,0,2.8827,2.8827,0,0,0,0,0,0,0,0,2.893,2.8929,2.8908,2.8905,2.8903,2.8882,2.8894,2.888,2.886,2.8876,2.8858,2.8857,2.8847,2.8845,2.8842,2.8844,2.8843,2.8827,2.8827,2.8827,2.8827,0,0,0,0,0,0,0,2.8931,2.8929,2.8916,2.8907,2.8904,2.8894,2.8891,2.8891,2.8867,2.8874,2.8872,2.8869,2.8845,2.8842,2.8841,2.8843,2.8827,2.8827,2.8827,2.8827,2.8855,2.8856,0,0,0,0,0,0,2.8936,2.8931,2.8917,2.8915,2.8914,2.8895,2.8891,2.889,2.8867,2.8863,2.887,2.8867,2.8843,2.8841,2.884,2.8857,2.8827,2.8827,2.8826,2.8854,2.8855,2.8856,0,0,0,0,0,0,2.8937,2.8935,2.8918,2.8922,2.8919,2.8895,2.8894,2.889,2.8886,2.8864,2.8859,2.8871,2.8842,2.884,2.8844,2.8855,2.8826,2.8826,2.8853,2.8855,2.8856,2.8892,0,0,0,0,0,0,2.8937,2.8936,2.8942,2.8922,2.8919,2.8923,2.8895,2.889,2.8886,2.8883,2.8864,2.8859,2.8842,2.8845,2.8844,2.8854,2.8826,2.8852,2.8854,2.8855,2.889,2.8895,2.8899,0,0,0,0,0,2.8938,2.8954,2.8943,2.8941,2.8927,2.8924,2.8922,2.8901,2.8887,2.8893,2.8878,2.886,2.8855,2.8845,2.8844,2.8855,2.8851,2.8853,2.8855,2.8888,2.8894,2.8899,0,0,0,0,0,0,2.8976,2.8951,2.8938,2.8949,2.8939,2.8917,2.8924,2.8908,2.8902,2.8899,2.8873,2.8869,2.8875,2.8866,2.8856,2.8869,2.885,2.8852,2.8875,2.888,2.8885,2.8886,2.8826,0,0,0,0,0,2.8985,2.8985,2.8964,2.8974,2.897,2.8948,2.8946,2.8931,2.892,2.8915,2.89,2.8889,2.8885,2.8882,2.8877,2.8889,2.8883,2.8895,2.89,2.8904,2.8905,2.8908,2.8912,2.8863,2.8863,2.8863,0,0,2.9005,2.8991,2.8993,2.8982,2.8972,2.8971,2.8945,2.8946,2.8945,2.8915,2.8917,2.8906,2.8892,2.8899,2.8901,2.8891,2.8917,2.8906,2.8909,2.8909,2.891,2.8915,2.8919,2.8865,2.8864,2.8864,0,0,2.904,2.9031,2.9037,2.9028,2.9014,2.9,2.9001,2.8983,2.8974,2.8976,2.8953,2.8951,2.8945,2.8935,2.8929,2.8959,2.8941,2.8959,2.8981,2.8984,2.8988,2.8991,2.9,2.9003,2.896,2.896,2.896,0,2.9065,2.9064,2.9043,2.9045,2.904,2.9013,2.9019,2.9012,2.8997,2.8993,2.8982,2.8972,2.8961,2.8964,2.8971,2.8969,2.8968,2.896,2.8989,2.8992,2.8995,2.9003,2.9006,2.8962,2.8962,2.8962,2.8962,0,2.9095,2.9095,2.9102,2.9088,2.9084,2.9088,2.9067,2.9065,2.9051,2.9037,2.9038,2.9024,2.9014,2.9014,2.9,2.9015,2.9009,2.8994,2.8974,2.9002,2.9009,2.9012,2.8965,2.8965,2.8964,2.8963,0,0,2.9152,2.9126,2.9129,2.9121,2.9103,2.9102,2.9105,2.9096,2.9094,2.9084,2.9084,2.9079,2.9065,2.9058,2.9043,2.9046,2.9068,2.903,2.903,2.9036,2.9081,2.909,2.9094,2.9057,2.9057,2.9058,2.9081,0,2.9181,2.9184,2.9165,2.9172,2.917,2.9145,2.9147,2.9136,2.9123,2.9119,2.9105,2.91,2.9083,2.9079,2.9081,2.9065,2.9076,2.9063,2.9055,2.9055,2.9057,2.9098,2.9109,2.9131,2.9084,2.9084,2.9085,0,2.9216,2.9208,2.9215,2.9196,2.9194,2.9196,2.9185,2.9182,2.9169,2.9159,2.9152,2.9134,2.9134,2.9116,2.9114,2.9105,2.9101,2.9093,2.9093,2.909,2.907,2.9094,2.9138,2.9141,2.9089,2.9089,2.9088,0,2.9253,2.9244,2.9247,2.9242,2.922,2.9222,2.9213,2.9198,2.9193,2.9184,2.918,2.9171,2.9166,2.9159,2.9138,2.9128,2.9138,2.9119,2.9128,2.9128,2.913,2.913,2.9172,2.9131,2.9131,2.9131,2.9131,0,2.9286,2.9291,2.9263,2.9265,2.9269,2.9247,2.9251,2.924,2.9227,2.9225,2.9203,2.9201,2.9176,2.9171,2.9155,2.9155,2.9153,2.9144,2.9139,2.9144,2.9145,2.914,2.9137,2.9132,2.9131,2.9131,2.9131,0,2.9328,2.931,2.931,2.929,2.9285,2.9289,2.927,2.927,2.9256,2.9254,2.9252,2.923,2.9222,2.9202,2.919,2.9179,2.9182,2.9175,2.9187,2.9184,2.9193,2.9192,2.9232,2.9235,2.9194,2.9194,2.9195,0,2.9349,2.9352,2.9332,2.9329,2.9321,2.9317,2.9312,2.929,2.9286,2.927,2.9271,2.9263,2.9254,2.9244,2.9226,2.9216,2.9207,2.9222,2.9205,2.921,2.9204,2.9204,2.9203,2.9225,2.9225,2.9226,2.9226,0,2.9388,2.9379,2.9373,2.9363,2.9358,2.935,2.934,2.9338,2.9314,2.931,2.9303,2.9296,2.9284,2.9274,2.9262,2.9251,2.9234,2.9232,2.9233,2.9237,2.9243,2.9238,2.9194,2.923,2.923,2.9229,2.9229,2.9229,2.9418,2.9419,2.9405,2.9398,2.9389,2.938,2.9378,2.9364,2.9358,2.9346,2.9334,2.9327,2.9312,2.9293,2.9284,2.9278,2.9269,2.9271,2.9271,2.9272,2.9273,2.9246,2.9275,2.9275,2.9275,2.9275,2.9275,0,2.9454,2.9443,2.9438,2.9425,2.9419,2.9405,2.9393,2.9389,2.9384,2.9372,2.9364,2.9355,2.9346,2.9328,2.9316,2.9315,2.9306,2.9312,2.9311,2.9309,2.9283,2.9282,2.9319,2.9319,2.9319,2.9319,2.9319,2.9319,2.9471,2.9471,2.9461,2.9455,2.9445,2.9439,2.9433,2.9424,2.9414,2.9405,2.9397,2.9386,2.937,2.9358,2.9348,2.9343,2.9339,2.9347,2.9339,2.9315,2.9311,2.9307,2.9305,2.9347,2.9347,2.9365,2.9365,2.9365]}]]